IUS DEB, 43360

Orbit data source: Space-Track

IUS DEB, 43360 is space debris originally from a launch on Fri, 23 Jul 1999 UTC launched from the Air Force Eastern Test Range (AFETR). Debris objects in space refer to the collection of defunct objects orbiting the Earth. Examples of debris include non-operational satellites, rocket bodies, and fragments generated from explosions, collisions, or faulty payload assembly.

Loading next visibility...
Identifier
43360, 1999-040H
Orbit
Active
Country
Flag of USUS
Related business
Manufacturer
Boeing/Kent
Mission
Spacecraft
Bus & Motor
Unknown
Mass
Unknown
Launch date (UTC)
1999-07-23 (27 years ago)
Launch vehicle
Unknown
Launch site
Air Force Eastern Test Range (AFETR)
Object type
Payload
Rocket body
Debris
Shape & HBR
Unknown shape, 0.1 m
Radar Cross Section
Medium (>0.1 m² and <1 m²)

Expand to show TLE details & history
Last TLE update: 11 months ago

TLE from 11 months ago
0 IUS DEB
1 43360U 99040H   25192.44022629  .00000022  00000-0  00000+0 0  9999
2 43360  27.8291 124.4691 3479214 180.0234 180.0218  7.07729844333548
Epoch: 2025-07-11T10:33Z
TLE epoch observation values (Epoch: 2025-07-11T10:33:55.551Z)
Latitude
Longitude
36.39552°
Altitude
9,066.183 km
Speed
4.104 km/s
True Right ascension
08h 17m 52s
True Declination
0° 00' 00"
Sunlit
Object was in daylight at epoch
Visualization orbit readout
Latitude
Unknown
Longitude
Unknown
Altitude
Unknown
Speed
Unknown
Apparent Right ascension
Unknown
Apparent Declination
Unknown
Sunlit
N/A
Visualization observer readout
Local Sidereal Time
21:36:49
Azimuth
Unknown
Elevation
Unknown
Doppler factor
Unknown
Orbital elements
Apogee altitude
9,072.296 km
Perigee altitude
1,096.258 km
Semi-major axis
11,462.414 km
Eccentricity
0.34792
Inclination
27.8291°
RAAN
124.4691°
Arg. of periapsis
180.0234°
True anomaly
180.01125°
Mean anomaly
180.0218°
Eccentric anomaly
180.01617°
Mean motion
1.7686 °/min
Orbital period
203.55 mins
BSTAR
0
Loading maneuver chart data...
Computing Atmospheric mass density...
Loading historical data...
Loading historical data...
Loading historical data...
Loading historical data...
Loading historical data...
Loading historical data...
Loading historical data...

Documentation

Showing up to 5 results
|